Overview Statistics Trail Chart Weather Telemetry Raw packets
 

This is the latest recevied weather packets stored in our database for station/object SV3AQT-13. If no packets are shown the sender has not sent any weather packets the latest 10 day(s).

<< 2 3 4 5 6 7 8 >>
Time Temp. Humidity Pressure Rain* Wind** Luminosity Snow
1788598023 31.11° C 59% 1020.3 hPa 0 mm 0 m/s - -
1788597842 31.11° C 60% 1020.3 hPa 0 mm 0 m/s - -
1788597662 31.11° C 61% 1020.3 hPa 0 mm 0 m/s - -
1788597304 30° C 60% 1020.3 hPa 0 mm 0 m/s - -
1788597122 29.44° C 60% 1020.3 hPa 0 mm 0 m/s - -
1788596943 29.44° C 64% 1020.3 hPa 0 mm 0 m/s - -
1788596764 30° C 63% 1020.3 hPa 0 mm 0.45 m/s, 75° - -
1788596582 29.44° C 64% 1019.9 hPa 0 mm 0.89 m/s, 80° - -
1788596402 29.44° C 64% 1019.9 hPa 0 mm 0.89 m/s, 67° - -
1788596222 29.44° C 65% 1019.9 hPa 0 mm 0.45 m/s, 71° - -
1788596043 29.44° C 65% 1019.9 hPa 0 mm 0.89 m/s, 78° - -
1788595862 29.44° C 65% 1020.3 hPa 0 mm 0.89 m/s, 77° - -
1788595682 29.44° C 65% 1020.3 hPa 0 mm 0.89 m/s, 79° - -
1788595502 29.44° C 65% 1020.3 hPa 0 mm 0.89 m/s, 77° - -
1788595322 28.89° C 65% 1020.3 hPa 0 mm 0.89 m/s, 82° - -
1788595142 28.89° C 67% 1019.9 hPa 0 mm 1.34 m/s, 70° - -
1788594962 28.89° C 64% 1019.9 hPa 0 mm 1.34 m/s, 79° - -
1788594784 28.89° C 64% 1019.9 hPa 0 mm 0.45 m/s, 58° - -
1788594605 28.33° C 62% 1019.9 hPa 0 mm 1.79 m/s, 74° - -
1788594423 28.33° C 61% 1019.9 hPa 0 mm 2.24 m/s, 50° - -
1788594242 28.33° C 57% 1019.9 hPa 0 mm 1.79 m/s, 58° - -
1788594062 28.89° C 61% 1019.9 hPa 0 mm 1.79 m/s, 67° - -
1788593883 28.33° C 58% 1019.9 hPa 0 mm 1.34 m/s, 65° - -
1788593702 29.44° C 58% 1019.9 hPa 0 mm 0 m/s - -
1788593522 28.89° C 60% 1019.9 hPa 0 mm 0 m/s - -

* Rain latest hour (hover to see other rain measurements)
** Current wind speed in m/s (hover to see current wind gust speed)